Погода в Тамдыбулаке

Погода в Тамдыбулаке : погода сейчас, прогноз погоды и архив. Всё, что Вы хотите узнать о погоде в Тамдыбулаке!

Хотите узнать прогноз погоды в Тамдыбулаке? Тогда Вам сюда: Погода в Тамдыбулаке

Поиск расширенной информации на нашем сайте:

Другие новости

Новости СМИ2

Главная страница сайта

Новости сайта

02.10.2013

Напоминаем, что на нашем новом сайте вы можете получить высокодетализированные прогнозы погоды по пунктам России, СНГ и мира (включающие важные для авиации метеовеличины, такие как направление и скорость ветра, видимость, явления погоды, количество и форма облачности, нижняя и верхняя граница облачности), а также ознакомиться с разнообразными материалами по авиационной метеорологии и подборкой полезных ссылок на эту тему.

Сайт Метеоцентр.Азия посвящён разработке технологий оптимизации авиаметеорологического обслуживания, включая проектирование и перспективное создание нескольких автоматизированных авиаметеорологических систем:
- система выпуска высокодетальных прогностических карт явлений погоды для нижнего воздушного пространства по России и ближнему зарубежью;
- система верификации прогнозов TAF (выпускаемых синоптиками официальных АМСГ РФ и ближнего зарубежья) и AUTOTAF (выпускаемых сайтом Метеоцентр.Азия) - выявление ошибок, онлайн-сопоставление с фактической погодой METAR, автоматическое внесение коррективов в прогнозы при резком отклонении фактической погоды от прогноза, подсчёт оправдываемости прогнозов по элементам и в целом;
- система обработки, анализа и отображения авиаметеорологической информации для применения провайдерами метеорологической информации.


Погода в Тамдыбулаке - сегодня

Время (UTC), дата Ветер
(°,м/с) 
Видим.   Явления Облачность Т
(°С)
Тd
(°С)
f(%) Тe
(°С)
Pmin
(гПа)
dP
(гПа)
Po
(мм)
O2
(г/м3)
Тmin Tmax R s Состояние
почвы
09 24.06.17 340 (С) 20000 м    5/0 средняя 
[Ac lent]
+35 +1.9 12 +35  1008.6  -0.4  737  263           
12 24.06.17 280 (З) 20000 м    8/0 средняя 
[Ac As]
+35.8 +1.1 11 +36  1007.7  -0.8  736  262           
15 24.06.17 260 (З) 20000 м    4/0 средняя 
[Ac lent]
+33.5 +1.5 13 +34  1007.8  -0.2  736  264    +36.7       
18 24.06.17 200 (Ю) н/о    ясно 
+28.8 +0 15 +29  1008.8  0.7  737  268    +36.2       
21 24.06.17 280 (З) н/о    ясно 
+26.6 -0.2 17 +27  1009.5  0.5  736  270           
00 25.06.17 190 (Ю) 20000 м    ясно 
+23.2 -0.5 21 +23  1009.8  0.2  737  274           
03 25.06.17 тихо ()   20000 м    ясно 
+28.2 +1.7 18 +28  1010.7  1.1  738  269           
06 25.06.17 330 (СЗ) 20000 м    ясно 
+31.7 +2.1 15 +32  1010.1  -0.3  738  266  +23.6         
09 25.06.17 310 (СЗ) 20000 м    3/3 1000 м 
[Cu hum]
+34.7 +1.3 12 +35  1009.1  -0.7  737  263           
12 25.06.17 330 (СЗ) 20000 м    8/8 1000 м кучево-дожд. 
[Cb calv]
+37 +0.4 10 +37  1007.3  -1.5  736  261           
15 25.06.17 320 (СЗ) 20000 м    5/5 600 м 
[Sc]
+35.6 +3 13 +36  1007.2  -0.2  736  262    +38.6       
18 25.06.17 050 (СВ) н/о    3/0 средняя 
[Ac trans]
+30.8 +2.3 16 +31  1007.3  -0.4  736  266    +38.6       
21 25.06.17 060 (СВ) н/о    8/0 средняя 
[Ac lent]
+28.2 +2.5 19 +28  1007.5  -0.3  735  268           
00 26.06.17 030 (СВ) 20000 м    8/0 средняя 
[Ac lent]
+25.6 +2.5 22 +26  1008.3  0.8  736  271           
03 26.06.17 130 (ЮВ) 20000 м    8/0 средняя 
[Ac lent]
+28.6 +3.8 20 +29  1008.2  0.2  736  268           
06 26.06.17 130 (ЮВ) 20000 м    5/0 средняя, верхняя 
[Ac trans|Ci fib]
+31.9 +3.6 17 +32  1010.6  2.6  738  266  +25.4         
09 26.06.17 050 (СВ) 20000 м    8/0 средняя 
[Ac cuf]
+35.4 +2.7 13 +35  1009.3  -1  737  263           
12 26.06.17 340 (С) 20000 м    8/0 средняя 
[Ac trans]
+34.4 +2.9 14 +34  1010  0.6  738  264           
15 26.06.17 050 (СВ) 20000 м    5/0 средняя 
[Ac trans]
+31.4 +3.2 17 +31  1010.2  738  266    +36.3       
18 26.06.17 230 (ЮЗ) 20000 м    ясно 
+26.6 +2.9 22 +27  1011.6  739  271    +36.3       
21 26.06.17 240 (ЮЗ) н/о    ясно 
+21.1 +0.9 26 +21  1012.8  0.6  739  276           
00 27.06.17 270 (З) 20000 м    ясно 
+18.4 +0.2 29 +19  1014.1  740  279           
03 27.06.17 380 () 20000 м    ясно 
+22.7 +1.1 24 +23  1014.6  741  275  +18.2         
06 27.06.17 040 (СВ) 20000 м    ясно 
+28.5 +3.6 20 +29  1004.8  0.6  741  270  +18.2         
09 27.06.17 340 (С) 20000 м    ясно 
+31.8 +3.8 17 +32  1003.5  -0.9  740  267           
Время (UTC), дата Ветер
(°,м/с) 
Видим.   Явления Облачность Т
(°С)
Тd
(°С)
f(%) Тe
(°С)
Pmin
(гПа)
dP
(гПа)
Po
(мм)
O2
(г/м3)
Тmin Tmax R s Состояние
почвы

Для получения пояснительной информации подведите курсор к названию столбца.

ПОГОДА в Тамдыбулаке - архив

Всё, что Вы хотите узнать о погоде в Тамдыбулаке - удобно и подробно!

Выберите нужную дату (начиная с 1 января 2015* года) и нажмите кнопку "Найти".
Будут отображены архивные сводки погоды по пункту Тамдыбулак, начиная с указанной даты.


Отображать данные в формате CSV (для использования в таблицах Excel)


Внимание! Наш архив погоды предназначен исключительно для личного некоммерческого использования в познавательных целях. Если Вам необходимы официальные справки о состоянии погоды (для производственных, юридических, коммерческих и т.п. целей), обращайтесь в органы Росгидромета.

*Примечание: данная дата относится к архиву по метеостанциям СССР (Россия, СНГ, Балтия).
Архив по метеостанциям Зарубежной Европы и Азии (кроме Китая) хранится 10 дней, по другим регионам земного шара (Китай, Африка, Америка, Австралия, Океания) - 1 день.

Тамдыбулак - район местоположения метеостанции


Название, широта, долгота, высота метеостанции:
Тамдыбулак (Тамды) 41.7°ш. 64.6°д. 237 м над ур. моря [Узбекистан]

Дополнительная информация

В oтличие oт бoльшинства пoгoдных сайтoв мы публикуем пoдрoбную метеoинфoрмацию в детальнoм прoфессиoнальнoм фoрмате.

Характеристики температуры и влажнoсти вoздуха измеряются на высoте 2 м в тени вдали oт зданий и деревьев.
Скoрoсть ветра измеряется на высoте 10 м (на урoвне рoста челoвека скoрoсть ветра ниже в 1.5-2 раза). Если метеoстанция нахoдится в гoрoде или в лесу, тo скoрoсть ветра занижена на 2-4 м/с пo сравнению с oткрытым местoм. Скoрoсть ветра над акватoриями крупных рек и oзёр, а также на вершинах хoлмoв на 2-5 м/с выше, чем в oбычных услoвиях.
Атмoсфернoе давление в разных тoчках местнoсти мoжет значительнo oтличаться oт давления на метеoстанции, в зависимoсти oт услoвий рельефа (при пoдъёме на 10 м давление пoнижается примернo на 1 мм рт.ст.).